User: anonymous   Login
Location: Bonn
(50.7330°N, 7.1000°E)
Time: 18:42:53
(UTC+02:00)
Language:

Cosmos 1933 Rocket - Orbit

View from above orbital plane
View from above orbital plane
View from above satellite
View from above satellite

Ground track
Ground track

The orbit data is extracted from the following two-line orbital elements,

1 18959U 88020B   15107.85968891  .00000562  00000-0  66077-4 0  9991
2 18959 082.5351 290.1416 0015939 222.8622 227.3512 14.83093779463288
Epoch (UTC): 17 April 2015 20:37:57
Eccentricity: 0.0015939
inclination: 82.5351°
perigee height: 608 km
apogee height: 631 km
right ascension of ascending node: 290.1416°
argument of perigee: 222.8622°
revolutions per day: 14.83093779
mean anomaly at epoch: 227.3512°
orbit number at epoch: 46328

The dashed part of the orbit path shows where the satellite is in the earth's shadow,  

DLR